timestamp,gas_concentrations,,corrected_fluxes_and_quality_flags,,,,,,,,,,storage_terms,,,turbulence,,,footprint,,
ISOdate,CO2_1_1_1,H2O_1_1_1,Tau_1_1_1,QcTau_1_1_1,H_1_1_1,QcH_1_1_1,LE_1_1_1, QcLE_1_1_1,Fc_1_1_1, QcFc_1_1_1,E_1_1_1, QcE_1_1_1,Sa_1_1_1,Sw_1_1_1,Sc_1_1_1,ustar_1_1_1,MO_length_1_1_1,ZL_1_1_1,Fetchmax_1_1_1,Fetch70_1_1_1,Fetch90_1_1_1
yyyymmddHHMM,[µmol+1mol_a-1],[mmol+1mol_a-1],[kg+1m-1s-2],[#],[W+1m-2],[#],[W+1m-2],[#],[µmol+1s-1m-2],[#],[mmol+1s-1m-2],[#],[W+1m-2],[W+1m-2],[µmol+1s-1m-2],[m+1s-1],[m],[#],[m],[m],[m]
201311100030,410.98311265442180,6.0029574426767240,0.81379057780444308,0,-15.537899143945431,0,-9999.,-9999.,-64.712261337673084,1,-9999.,-9999.,-9999.,-9999.,-9999.,0.82128390569375376,2986.6685275126792,7.23213835115095547E-003,109.27208150651256,199.78421553682608,299.31316032474314
201311100100,393.01073076222031,6.0464998695764036,0.68979167557335874,0,-5.0106054852779200,0,-152.48894768558591,2,-35.925278752317901,1,-3.3829278314405524,2,-8.67853891190103893E-002,1.5941155427809397,-14.597119677534039,0.75594330451035607,7224.9248053786641,2.98965049212964471E-003,108.10959804233502,197.65882500922459,296.12893801753381
201311100130,429.79602263117016,6.1119963759754219,0.85028771221802313,0,-20.050473259306266,0,-9999.,-9999.,11.160562417703613,2,-9999.,-9999.,1.3181126929005944,-685.27996066640162,29.889100869456758,0.83913152082681997,2470.6779890279749,8.74253953608012183E-003,113.81462204972048,208.08942841880943,311.75588262988936
201311100200,415.54845232985571,6.1518100505287867,0.76531884479461565,0,-16.373215074257956,0,-9999.,-9999.,109.41259199238365,1,-9999.,-9999.,2.1555747079676175,-416.68291487909772,-11.580849967518850,0.79595968740720324,2583.5193414466894,8.36068832676309034E-003,110.99744679643851,202.93873356384640,304.03920315766544
201311100230,411.65634201780762,6.1631633902395340,0.67052257207796639,0,-17.364479533633716,0,11.854260750693378,2,9.8595896810838681,0,0.26302357856645220,2,0.31600065367766406,0.41613065326140114,-3.1652748167092772,0.74484203358880163,1997.0140431254838,1.08161482761504803E-002,104.50602024484328,191.07033549321858,286.25818014257698
201311100300,417.93252750083781,6.1244837199910531,1.0979569028563818,0,-7.6178359414324053,0,-186.42552490537048,2,130.82367959807277,1,-4.1363153964514465,2,-0.68752591769849825,-1.4182263281823750,5.1058355453079205,0.95295974172582576,9534.7621081451343,2.26539474766214227E-003,112.18579767627007,205.11141797725253,307.29428032388444
201311100330,404.32726432412306,5.9501058367415753,1.1801576999066496,0,-25.465581560724999,0,116.47140952347542,1,-3.5745819052764483,1,2.5841606559095172,1,-0.46651583873496516,-6.3976350713981898,-11.074782048925666,0.98766345435450731,3176.4338218137004,6.80007870828761539E-003,109.74881411656716,200.65583479407346,300.61900480192372
201311100400,392.95718854166631,5.8538222892866170,1.0320987754141928,0,-27.070312074524171,0,63.305352352625761,1,3.3852089989048926,0,1.4045437108199110,1,-0.30862017064602487,-3.5353936386925122,-9.2628340094141013,0.92324194950799243,2442.0219720875825,8.84512926046077466E-003,108.44649283706505,198.27477614107494,297.05174505403738
201311100430,354.45463539489657,5.9019212847055691,0.83733775081501527,0,-19.187257826234088,1,241.55885357426860,2,193.47523105706659,1,5.3587987841428211,2,-2.9076718643546893,1.7684340897882234,-31.404139045093149,0.83109519567958912,2514.5965811687365,8.58984704018039141E-003,116.93417020665689,213.79295737854420,320.30080833062482
201311100500,322.38450749608876,5.7813704549596983,0.62385082046844742,0,-12.938272641988403,1,-13.062627383493789,2,32.886449658138005,2,-0.28978414322019452,2,-2.37837232377445112E-002,-4.4351813261230379,-26.174955194009076,0.71711192542482904,2396.6754962356972,9.01248418232911477E-003,99.515912859024510,181.94682767881946,272.58950291581215
201311100530,313.87934936121502,5.6673134935907008,0.49027481955123386,0,-19.345518843463044,0,93.299635122248503,1,-19.862155944965536,2,2.0696589624785151,1,-1.4599224352488684,-4.2000075356935076,-6.9475152441204573,0.63544219239696664,1115.7131685234881,1.93598145198778972E-002,100.66195251164014,184.04215367440108,275.72868307558070
201311100600,347.23297161325695,5.7021469131871241,0.67779463132661677,0,-15.483325256174918,0,-51.699168275699755,1,4.4915433522936432,1,-1.1467512212189070,1,-1.9221783140420912,1.2841680390896382,27.274349816059292,0.74675139023419290,2263.6560485698046,9.54208569523936657E-003,111.43202753983385,203.73328576519231,305.22958714164935
201311100630,367.29249824493894,5.7254897055171767,0.51562584784748500,0,-16.130386837593754,0,67.372195122473457,1,-7.2121181768069995,1,1.4942892615061725,1,-1.8361472094505149,0.86124394357775680,16.415270077419610,0.65108585832147903,1440.6409426889315,1.49933264840328446E-002,107.44390588932659,196.44172744190237,294.30550407747052
201311100700,381.56122847256444,5.6470504042950784,0.46216149786129568,0,-13.728841496299923,0,78.840511423666513,1,-12.874232812743255,2,1.7485030251013887,1,-2.1479696142726064,-2.8968036529898678,11.686585093028738,0.61613215684946177,1434.9362814767060,1.50529332060453901E-002,115.47572594056548,211.12645611318771,316.30590353497212
201311100730,397.88483027622982,5.6076522836818175,0.27947846388555941,0,-13.278325276499595,0,23.415209076277499,0,1.2891075408782355,1,0.51927274136098389,0,-1.1303683335383503,-1.4559640589076084,13.377920983051528,0.47897490376710000,697.22972251456895,3.09797464200167669E-002,101.86954379395837,186.25001567996452,279.03646268504787
201311100800,397.42558639669954,5.4512055204072682,0.50245118738777272,0,-12.300317232608560,0,-27.370143875041869,2,8.7968291290639513,1,-0.60699348026165711,2,0.54941880222014994,-5.7831718688749181,-0.37648687435127204,0.64210453407737855,1813.8130798422587,1.19086140904213142E-002,121.56655366589726,222.26243176496328,332.98962430178091
201311100830,389.85861050270756,5.4375960306765228,0.43301027195003128,0,-14.991109076415775,0,27.752662519253807,0,-0.13064485296466977,1,0.61546871058367247,0,-0.32663009286917599,-0.50334519686436163,-6.2065143151259639,0.59593281942315468,1190.1165736252524,1.81494825622027477E-002,113.55828221295899,207.62075744181169,311.05372810331301
201311100900,389.68783274408247,5.3668204178415131,0.43968927413239223,0,-12.371659048003091,0,34.696075575610479,0,0.17394107030180972,1,0.76945177417209998,0,-1.59333890609604095E-002,-2.6176939808658259,-0.14007724624277768,0.60049566861884129,1475.4857143274526,1.46392471240194885E-002,113.43851312381258,207.40178134846028,310.72566201280398
201311100930,389.53461412097198,5.3611170427476864,0.41734448044619876,0,5.8301052341419322,1,30.472814293192222,0,-0.60590623936060495,1,0.67582083555962269,0,1.0432837622088900,-0.21086396379335048,-0.12563220970422007,0.58513655798121933,-2896.4987033466614,-7.45727936112763022E-003,120.54799483375146,220.40018136712285,330.19963385936336
201311101000,389.18258908854693,5.2422840945321898,0.45770314632455622,0,4.7375675597237450,0,51.597554934291445,0,0.28196833595125548,1,1.1444973121670106,0,3.8684774429618654,-4.3905696158194703,-0.28849825973084264,0.61291741871782424,-4096.8349187728190,-5.27236279426903168E-003,112.69542338973646,206.04317631825393,308.69022410730440
201311101030,388.75598061499483,5.0427752146013276,0.48569377468428160,0,13.315246070867897,0,54.281203764906735,1,0.24380295260608126,0,1.2041022728042599,1,1.6394996245708338,-7.3700773940258548,-0.34958533141640513,0.63139019484328762,-1593.5800225506475,-1.35543867859409650E-002,113.74239647955584,207.95737704138432,311.55804560359502
201311101100,388.79235697151540,5.0931349618582109,0.39236091825355679,0,7.5634413761589139,0,47.580701309591689,0,-0.42138444952884407,1,1.0554402111372780,0,-0.64491293056061494,1.8611141474469504,2.98202626065505010E-002,0.56738690441064865,-2036.2968432128873,-1.06074907850465111E-002,107.66189790694672,196.84028637510008,294.90261798634720
201311101130,388.63149140739387,4.8707430630917816,0.59082540108110992,0,-0.80201786184342816,1,63.509682261626203,0,-0.21548931726432363,0,1.4086989460216524,0,-1.4252809661417332,-8.2201632497234662,-0.13188725088027259,0.69618392188234679,35469.938839390059,6.08966372843383077E-004,117.22071173692895,214.31684668361535,321.08568997475192
201311101200,388.48434861157983,4.8548090211799844,0.44586746336000149,0,-3.7708323658413674,0,33.111431600799328,0,-0.81140580373597859,0,0.73443540099580773,0,-0.15123975337417395,-0.58878415091035630,-0.12059930462453444,0.60487126668185798,4946.7521374319285,4.36650137300258808E-003,101.26662042340216,185.14767946604135,277.38496216463301
201311101230,388.59276408410079,4.7483207841882953,0.76983105783462302,0,10.242973836808099,0,65.257974542206227,0,-1.1074272410172585,0,1.4475186970920833,0,0.86720724509284541,-3.9328574231709785,8.88154303050244648E-002,0.79497475901015868,-4133.2106168741329,-5.22596160762203374E-003,110.98589795754388,202.91761860303376,304.00756909871848
201311101300,388.34191768040091,4.8029592953868958,0.55172972425810529,0,22.227538229483503,0,74.557463989832215,0,-1.2785376251174074,0,1.6541587160791309,0,5.5306358929653481,2.0149962314149108,-0.20524345198704744,0.67342800690633786,-1157.5035370106598,-1.86608501048589719E-002,109.13467348328346,199.53298984632201,298.93677846105339
201311101330,388.51320213625269,4.7843633559196332,0.82778248083604866,0,40.471315958789539,0,60.165157495382452,0,-2.0577754170026421,0,1.3354004593223077,0,10.427546544955216,-0.68407301813692345,0.13985202294651553,0.82573346189192409,-1171.5519937649713,-1.84370818495088011E-002,109.26683907539962,199.77463070076399,299.29880049373628
201311101400,388.33527074513751,4.7583513105925821,0.83971953359831863,0,87.965130401094370,0,101.25676048403813,0,-2.9410890464638388,0,2.2482614787488524,0,9.0146018274110222,-0.95470364440006716,-0.14500048105783012,0.83246066745485803,-552.08451945357376,-3.91244442452011246E-002,112.90090251985497,206.41885770231787,309.25306327874353
201311101430,388.29678515478270,4.8193971757803089,0.68992059212929591,0,62.067525359642083,0,80.708900054656553,0,-2.5990783412638665,0,1.7931541189348683,0,15.714099509550133,2.2328733930543900,-3.12753506716647936E-002,0.75562720794286808,-585.02863422758094,-3.69212697230088469E-002,112.88323930739840,206.38656371655458,309.20468100333539
201311101500,388.25768228340280,4.7702251674875624,0.38265155326591466,0,-9.41419358645869953E-002,2,51.842468110337059,0,-1.1590154413108766,0,1.1517715248658762,0,-0.89201401532523206,-1.7989537421542501,-3.17827423675406950E-002,0.56268635965820246,159273.93708231385,1.35615408243703906E-004,86.834560029412401,158.76127019624539,237.85331284517545
201311101530,388.03320174843077,4.8244174233970343,0.53437646281194251,0,-29.788344360153747,0,50.666941619636219,0,-1.3551835901632929,1,1.1254821417348468,0,-3.8383533642232042,1.9838948095081137,-0.18254671331198538,0.66479303340382956,830.06676198032869,2.60220032765411322E-002,113.84492875641604,208.14483874447725,311.83889739482305
201311101600,388.02301952861342,4.8554826862460514,0.30636684536415093,0,-52.039361038844412,0,36.754284927557002,0,-1.4107454512107422,0,0.81631394637410193,0,-3.7210363460325184,1.1377692588021850,-8.28267975411417674E-003,0.50329162197903987,206.13211692252347,0.10478716428317936,106.62845389029839,194.95082111260291,292.07185471747624
201311101630,388.01819356322454,4.8726273252445589,0.12728897984309515,0,-44.731852013567554,0,17.970886478502944,0,-0.70250798342036136,0,0.39895754174435716,0,-11.069679415204215,0.62918075265783147,-3.93177326261815244E-003,0.32415871458890927,64.065936914737662,0.33715264367001180,97.235877851615797,177.77819650540758,266.34413379398501
201311101700,388.34902604933689,4.8527732456886961,0.23791922206827890,0,-58.663474208723358,0,24.258264845879818,0,0.67274341731541210,0,0.53836021349195973,0,-8.3073619163291408,-0.72948192619280339,0.26976534029937072,0.44298453118451769,124.63365946262093,0.17330791772569346,105.74875699102100,193.34245461578791,289.66222862249884
201311101730,388.80631113740327,4.8417258563511538,0.24512363505018253,0,-69.237775935462196,0,29.408136169015442,0,1.2645134116025911,0,0.65258191825719303,0,-2.6369087153169395,-0.40591468715797596,0.37284616522608127,0.44965886635110813,110.40558354043716,0.19564227919767105,101.63300679140082,185.81755059968160,278.38855118932861
201311101800,389.18855924022955,4.7812402220953576,0.28793549867939933,0,-81.648156173048420,0,33.075604782030837,0,1.4341288491338835,0,0.73400531015086967,0,1.3773331508381053,-2.2214999021587776,0.31155218820411729,0.48742947104924128,119.24038733514274,0.18114667758743527,104.75419022381934,191.52406936454202,286.93795616295620
201311101830,389.31693319135070,4.7173222101385761,0.41205141169323661,0,-91.295395292095805,0,37.719634411865684,0,1.7936673383393211,0,0.83719190163966906,0,3.8116681088376265,-2.3449471175722976,0.10453079334767752,0.58336945847040422,182.76665282244363,0.11818348515133245,111.76049567963361,204.33383028428634,306.12931226479157
201311101900,389.44002931848468,4.7378661404200990,0.27408158128946331,0,-61.602194887980005,0,25.954295569060253,0,1.1151282370078315,0,0.57613504047688158,0,3.3109269395843461,0.75301063413614600,0.10015600884871764,0.47596712784227496,147.08597679886802,0.14685288475553868,93.493172503324757,170.93533745408399,256.09228400292432
201311101930,389.54117610993399,4.7873811968756321,0.65590485351299777,0,-106.23704554487121,0,42.358670433363379,0,2.4262763411842050,0,0.94046431980421130,0,4.8864441668478555,1.8127250050886237,8.22141860330169033E-002,0.73668277318014119,316.17548128406526,6.83164928294792695E-002,107.67285966078165,196.86032795718239,294.93264392836096
201311102000,389.59828566564460,4.8602235035996530,0.59418528089891398,0,-69.990259445083922,0,26.569905241004093,0,1.1147046300310226,0,0.59003643459471378,0,5.1018352238447955,2.6631950514779117,4.63678427467940774E-002,0.70156885224017718,414.41876010996140,5.21211925692473058E-002,107.57570280034901,196.68269422972017,294.66651623551940
201311102030,389.87275699330104,4.9216178476555887,0.42495847260247727,0,-48.699812560427183,0,26.826574315789205,0,1.0049045880915912,0,0.59581236667858029,0,3.1833924571215406,2.2427131284190609,0.22268278283442500,0.59353574297959233,360.58674788490333,5.99023678121819517E-002,101.70642997709267,185.95179160025032,278.58966867009360
201311102100,390.18667667889002,4.9531648481416513,0.83315726031025183,0,-59.815900465801775,0,36.151661225505848,0,0.82873426245380077,0,0.80298957040514685,0,2.1422688173081776,1.1517535654128066,0.25456675670682244,0.83127166475658643,806.43001615912522,2.67847172937296478E-002,116.36820286211102,212.75818856668792,318.75053609089883
201311102130,390.18116748762770,4.9832217181421026,0.96847032823000179,0,-28.302818998443588,1,14.363814773009976,1,2.2984491453585258,0,0.31902627253552784,1,-1.4333137305000290,1.0973199949304571,-4.46718608124946608E-003,0.89627976273392518,2135.8077500417512,1.01132697919921674E-002,103.77239063916880,189.72902659488363,284.24865499438863
201311102200,405.74215196415759,5.5801692694235836,0.84783331969313069,0,-31.109899966146251,1,-122.28587902910104,2,-34.257298556020181,2,-2.7131984724743319,2,-26.010320229511219,21.905491827523523,12.669490700759029,0.83698338554356666,1582.6066338218673,1.36483694295137289E-002,105.74662914369436,193.33856423223276,289.65640011901246
201311102230,437.01267206985818,5.8018051472882330,0.51138773555965933,0,-12.480196126411933,0,-9999.,-9999.,-80.109918914406691,1,-9999.,-9999.,-12.945920272302683,-2328.9260319890577,25.506060268144040,0.64947418598088602,1843.0607371342228,1.17196354763575861E-002,106.96004121418356,195.55706849501783,292.98012376907093
201311102300,399.70503392800572,5.7811907782767715,0.50113807209765548,0,-65.105563638270112,0,956.61429762108651,0,-151.28938885632974,0,21.212848021435583,0,-1.1010838619407621,-0.75812822392404744,-30.425133167048863,0.64298451680610613,342.72973180839057,6.30234204836243456E-002,102.76521414318604,187.88758673775916,281.48984253414068
201311102330,400.27433949925529,5.7784669365005783,0.49398476552000398,0,-17.379302235691444,0,-9999.,-9999.,23.072935129930702,2,-9999.,-9999.,-1.0060349991692807,28.619670411803739,0.46428469053059707,0.63837558826594509,1256.3745935074305,1.71923247346948624E-002,99.557479346276295,182.02282447446689,272.70335996412132
201311110000,405.90095599747070,5.8463688602066730,0.51061505718119526,0,-14.960574442568413,0,-9999.,-9999.,-89.244869468859989,1,-9999.,-9999.,0.10299266868253851,-713.52918808095376,4.5891783959498298,0.64900425155560781,1533.7748989858314,1.40829009617268065E-002,106.32078967755965,194.38831280724864,291.22911477362186
